Weather Roundup
Issued by NWS Chicago, IL

Home | Current Version | Previous Version | Text Only | Print | Product List | Glossary Off
Versions: 1 2 3 4 5 6 7 8 9 10 11 12 13 14 15 16 17 18 19 20 21 22 23 24 25 26 27 28 29 30 31 32 33 34 35 36 37 38 39 40 41 42 43 44 45 46 47 48 49 50

000
NZUS59 KLOT 281606
HRRLOT

CHICAGO AREA WEATHER ROUNDUP
NATIONAL WEATHER SERVICE CHICAGO/ROMEOVILLE IL
1000 AM CST SAT FEB 28 2015

NOTE: "FAIR" INDICATES FEW OR NO CLOUDS BELOW 12,000 FEET WITH NO
SIGNIFICANT WEATHER AND/OR OBSTRUCTIONS TO VISIBILITY.

* THESE STATIONS ARE NOT UNDER NWS QUALITY CONTROL. THEY ALSO MAY NOT
  REPORT WEATHER SUCH AS PRECIPITATION OR FOG.

ILZ005-006-012>014-019>023-281700-
NORTHEAST ILLINOIS

CITY           SKY/WX    TMP DP  RH WIND       PRES   REMARKS
OHARE          MOSUNNY   10  -1  61 SE7       30.70F WCI  -1
MIDWAY         MOSUNNY   14   1  56 S6        30.72F WCI   5
AURORA         SUNNY      9  -1  64 SE5       30.71S WCI   1
LANSING*       SUNNY     10   7  88 CALM      30.73S
JOLIET*        MOSUNNY    9   6  86 SE6       30.72F WCI   0
WAUKEGAN       SUNNY     10  -3  55 SW7       30.70F WCI  -1
DUPAGE AIRPORT SUNNY      9  -1  64 S6        30.69F WCI  -1
WHEELING       SUNNY     11  -3  53 S6        30.73F WCI   1
KANKAKEE*      CLOUDY    12   2  64 E8        30.72S WCI   1
MORRIS*        SUNNY      2  -1  87 CALM      30.72S FOG
LEWIS AIRPORT* MOSUNNY    8   5  85 CALM      30.71F
NORTHERLY IS     N/A     15   1  53 CALM        N/A
$$

WIZ051-052-058>065-066-070>072-281700-
SOUTHEAST WISCONSIN

CITY           SKY/WX    TMP DP  RH WIND       PRES   REMARKS
MILWAUKEE      SUNNY      8  -4  58 SW8       30.70S WCI  -4
KENOSHA*       SUNNY      9  -2  61 SW7       30.70F WCI  -2
RACINE*        SUNNY      8  -4  58 W6        30.72F WCI  -2
BURLINGTON     SUNNY      7  -5  57 W3        30.69S
WAUKESHA       SUNNY      7  -6  56 SW6       30.68S WCI  -3
WEST BEND      SUNNY     12  -6  44 SW6       30.65F WCI   3
$$

INZ001>003-010>013-019-020-281700-
NORTHWEST INDIANA

CITY           SKY/WX    TMP DP  RH WIND       PRES   REMARKS
GARY*          MOSUNNY   14  -6  41 SE7       30.73F WCI   4
MICHIGAN CITY* NOT AVBL
RENSSELAER*    NOT AVBL
VALPARAISO     PTSUNNY    3  -3  76 E6        30.72F WCI  -8
$$

LMZ740>746-281700-
SOUTHERN LAKE MICHIGAN

STATION/POSITION TIME  SKY/WX   TEMP WIND        PRES    VSBY
                                AIR  DIR/SP/G
                 (UTC)          (F)  (DEG/KT/KT) (MB)    (MI)
HARRISON CRIB    1600            11  170/  8/ 12   N/A
BURNHAM HARBOR   1600            15  150/  1/  5   N/A
CALUMET HARBOR   1600            13  130/  5/  7 1039.0F
BURNS HARBOR     NOT AVBL
MICHIGAN CITY    1600            11  150/  6/  8   N/A
$$

ABBREVIATIONS USED IN REMARKS
   TC - TEMPERATURE IN CELSIUS
  WCI - WIND CHILL INDEX
   HX - HEAT INDEX
  VSB - VISIBILITY
$$


USA.gov is the U.S. government's official web portal to all federal, state and local government web resources and services.